User: anonymous   Login
Location: The Saddle
(36.8333°N, 80.3417°W)
Time: 14:03:37
(UTC-05:00)
Language:

Explorer 11/Cluster Stage 4 - Orbit

View from above orbital plane
View from above orbital plane
View from above satellite
View from above satellite

Ground track
Ground track

The orbit data is extracted from the following two-line orbital elements,

1   107U 61013A   24053.49568835  .00005512  00000-0  69814-3 0  9995
2   107  28.7877 126.7870 0525197 192.0260 166.7324 14.14242437155843
Epoch (UTC): 22 February 2024 11:53:47
Eccentricity: 0.0525197
inclination: 28.7877°
perigee height: 465 km
apogee height: 1224 km
right ascension of ascending node: 126.7870°
argument of perigee: 192.0260°
revolutions per day: 14.14242437
mean anomaly at epoch: 166.7324°
orbit number at epoch: 15584

The dashed part of the orbit path shows where the satellite is in the earth's shadow,  

DLR